Theta_e
308 308 309 309 309 309 310 310 310 310 310 310 310 310 310 310 310 310 310 310 310 310 310 310 310 311 311 310 310 310 310 310 311 312 314 317 316 314 314 312 312 312 312 312 312 313 314 314 315 314 315 316 317 318 317 316 317 319 323 324 321 322 322 321 321 320 321 319 316 316 317 317 317 316 315 316 315 316 317 317 317 316 315 315 316 315 315 315
308 308 308 309 309 309 309 310 310 310 310 310 310 310 310 310 310 310 310 310 310 310 310 310 311 311 311 310 310 310 310 310 311 315 316 316 313 312 312 313 313 312 312 312 313 315 315 315 315 314 316 316 316 318 319 317 317 320 324 322 321 323 320 319 319 318 320 319 317 316 317 317 317 316 315 315 316 315 317 317 317 317 316 315 315 315 315 315
308 308 308 309 309 309 309 309 310 310 310 310 310 310 310 310 310 310 310 310 310 310 310 310 311 312 311 310 310 310 310 310 312 316 316 313 312 312 312 313 313 312 313 312 313 315 315 315 314 314 316 316 316 317 319 319 317 319 322 322 321 320 318 318 318 318 319 318 318 317 317 317 317 317 316 316 316 316 316 317 316 317 317 316 315 315 315 315
308 308 308 309 309 309 309 309 310 310 310 310 310 310 310 310 310 311 310 310 310 310 310 310 311 311 311 310 310 310 310 313 314 315 315 313 312 312 312 313 313 313 312 312 312 314 315 315 314 315 316 316 316 316 317 318 318 318 319 320 319 317 318 318 317 317 318 319 318 318 317 317 317 317 317 316 316 316 316 317 317 317 317 317 316 316 315 315
309 308 308 308 309 309 309 309 310 310 310 310 310 310 310 311 311 311 311 310 310 310 310 311 312 311 310 310 309 310 312 314 315 316 315 313 312 312 312 313 313 313 312 312 312 313 314 315 314 315 316 316 316 316 316 317 317 318 317 317 318 317 318 316 316 316 317 318 318 317 316 317 317 317 317 317 317 317 317 318 317 317 318 317 317 317 316 315
309 308 308 308 309 309 309 309 310 310 310 310 311 311 311 311 311 311 310 310 310 310 311 311 312 311 310 310 309 310 314 315 315 316 315 313 313 313 313 313 313 313 312 312 314 314 314 315 315 315 316 317 317 315 317 316 316 317 317 316 317 317 317 316 316 316 316 318 317 317 317 317 317 317 317 317 317 317 318 318 317 317 318 318 318 317 317 316
309 308 308 308 308 309 309 309 310 310 310 310 310 310 311 311 311 311 310 310 310 310 311 311 311 310 309 309 309 309 311 315 315 314 314 313 313 314 313 313 313 313 313 314 315 315 315 315 315 316 316 317 317 316 316 316 315 317 317 316 316 317 317 316 315 315 316 317 317 317 317 317 317 317 317 317 317 317 318 318 317 317 317 317 317 317 316 316
309 309 308 308 308 309 309 309 309 310 310 310 310 310 311 311 311 311 310 310 310 310 310 311 310 310 310 309 310 310 311 315 315 313 313 313 313 314 313 313 314 314 315 316 317 316 316 316 315 316 317 316 317 316 316 316 316 317 317 316 316 317 316 315 315 315 315 316 316 316 316 317 317 317 316 317 317 317 317 317 317 317 317 316 316 316 316 315
309 309 308 308 308 309 309 309 310 310 310 310 310 310 311 311 311 310 310 310 309 309 310 310 309 309 310 309 311 314 316 317 315 313 313 313 314 314 314 315 316 316 316 317 317 317 316 316 316 317 317 317 317 316 316 316 317 317 317 317 317 317 316 315 315 315 316 316 316 316 316 317 317 317 316 317 317 317 317 317 317 317 317 316 316 316 316 316
309 309 309 308 308 308 309 309 310 310 310 310 310 310 311 311 311 310 310 310 309 309 309 308 308 309 309 310 312 314 317 316 313 313 313 314 315 315 315 316 316 317 318 317 317 317 316 317 317 317 317 317 317 316 317 317 317 318 317 317 317 317 316 316 317 316 316 316 316 316 317 317 317 316 317 318 318 317 317 317 317 317 317 317 316 316 316 316
309 309 309 308 308 309 309 309 310 310 310 310 310 310 311 311 311 310 310 310 309 308 308 308 308 309 309 310 313 315 316 314 313 313 313 314 314 314 315 314 315 317 318 318 317 317 317 317 317 317 317 317 317 317 317 317 317 317 317 317 317 317 317 317 317 316 316 316 316 316 317 317 317 317 317 318 319 319 318 318 317 317 317 317 317 317 317 316
310 309 308 308 308 308 309 309 309 310 310 310 310 310 310 311 310 310 310 309 308 307 307 307 308 309 309 310 313 316 316 314 313 313 313 314 313 313 314 314 314 316 317 318 317 316 316 316 317 317 317 317 317 317 316 317 317 317 317 318 317 317 318 317 317 317 317 317 317 316 317 318 317 318 318 317 318 319 318 318 318 317 317 317 317 317 317 317
310 309 309 308 309 308 309 309 309 310 310 309 310 310 310 311 310 310 309 309 308 307 307 307 308 309 309 311 314 315 315 313 313 314 314 313 313 313 313 314 315 315 316 317 317 317 316 316 317 317 317 317 317 316 317 317 317 318 317 317 318 318 318 318 318 318 317 316 317 316 319 320 318 318 318 318 318 318 318 318 318 318 318 318 318 318 317 317
310 309 309 308 308 309 309 309 309 310 310 309 309 310 310 311 310 310 309 308 307 306 307 308 308 308 310 314 316 313 313 313 312 313 314 313 312 313 313 314 316 316 316 316 316 318 316 316 317 317 317 317 317 316 317 317 317 318 318 318 319 318 318 318 317 317 317 317 317 317 318 320 318 318 319 319 319 319 318 318 318 318 318 318 318 318 318 318
310 309 309 309 308 308 309 309 310 309 309 309 309 310 310 310 310 309 308 307 307 306 307 307 308 310 311 314 315 313 314 314 312 313 314 313 312 313 314 315 317 316 316 316 316 317 317 317 317 317 317 316 317 317 318 318 317 318 318 319 320 319 318 319 317 317 317 316 316 317 319 319 317 318 319 319 319 318 318 318 318 318 319 318 319 319 319 318
310 309 309 308 308 309 309 309 309 309 309 309 309 310 310 310 309 308 307 306 306 306 307 308 308 310 313 315 315 314 315 315 313 313 313 313 314 314 314 316 318 317 317 317 316 317 317 317 318 317 317 316 317 319 319 319 318 319 318 319 321 320 319 318 317 316 317 316 316 317 318 319 318 318 319 319 318 318 317 317 318 318 318 319 319 319 319 319
310 309 308 309 309 309 309 309 309 309 309 309 309 310 309 309 308 306 306 306 306 306 308 311 310 309 312 316 315 314 314 315 314 314 313 313 314 315 315 317 318 317 317 316 316 317 317 317 317 317 317 317 317 318 320 319 319 320 319 318 320 321 319 317 317 317 317 316 317 317 317 317 318 317 318 318 318 318 318 318 318 318 318 319 319 319 319 318
309 309 308 308 308 309 309 308 309 308 309 309 308 308 308 307 306 306 306 306 307 307 308 312 313 311 311 313 315 314 313 313 314 314 313 313 313 315 316 317 317 317 317 316 317 317 318 316 316 318 318 317 318 319 320 321 319 320 321 319 318 319 317 317 317 317 317 317 317 317 317 317 317 317 317 318 318 318 318 318 318 318 318 318 318 319 319 319
308 308 308 308 308 308 308 308 308 308 307 307 307 306 306 305 305 305 306 306 307 308 309 311 312 312 312 312 314 315 313 311 313 314 314 313 313 314 316 317 318 318 317 317 317 317 318 318 318 320 321 318 318 319 320 320 318 318 320 319 318 318 317 317 317 316 316 317 317 317 317 317 317 317 317 317 318 318 318 318 318 318 319 318 319 318 318 319
308 307 307 307 308 308 308 308 307 306 306 306 305 305 306 308 308 309 308 308 309 311 313 311 310 313 314 313 314 315 313 312 313 314 314 313 313 314 316 317 318 318 318 319 319 317 318 320 321 322 321 319 317 317 318 318 317 317 318 318 318 318 317 317 317 316 315 317 318 318 318 317 317 317 317 317 318 318 317 318 318 318 319 319 319 319 318 318
307 307 307 307 307 307 306 306 306 305 305 305 305 307 310 310 310 312 311 309 309 312 315 312 311 315 315 314 314 315 313 313 314 314 314 314 313 314 316 317 318 318 318 319 319 317 318 321 323 321 319 318 318 318 318 317 316 316 317 318 319 319 319 318 318 316 315 317 318 317 318 317 317 317 317 317 317 317 317 317 318 318 318 319 319 319 319 318
307 306 306 306 305 305 305 305 305 305 305 305 305 310 314 312 312 313 311 309 308 310 313 313 313 314 314 313 313 314 314 315 316 315 313 314 314 315 317 317 317 317 318 319 319 318 319 320 320 318 318 318 318 318 317 317 317 317 318 318 320 321 320 318 318 316 315 317 319 318 318 318 317 318 317 316 317 317 318 318 318 318 318 318 318 319 319 319
308 307 306 306 305 305 306 306 306 305 306 306 306 311 314 312 313 313 311 312 311 309 310 312 313 313 312 313 312 314 316 316 317 316 314 314 315 316 316 316 316 318 319 318 319 319 320 319 318 317 318 318 317 317 316 317 318 320 320 319 320 322 321 318 317 317 316 317 319 319 319 317 317 318 317 317 317 317 318 318 318 318 318 319 319 319 319 320
309 308 307 307 307 307 307 308 308 307 307 307 307 310 312 312 312 310 311 313 313 312 311 310 312 314 313 313 312 313 316 316 317 317 313 314 316 315 316 316 315 317 318 317 318 319 319 318 317 317 318 318 318 317 318 317 317 321 323 321 321 321 321 319 319 320 318 319 321 321 322 322 320 320 320 319 319 318 318 318 318 319 318 319 319 319 320 320
309 309 309 308 308 309 308 309 309 308 308 308 308 309 310 312 311 310 312 313 314 315 312 310 311 312 313 313 312 313 315 316 317 317 313 314 316 315 316 317 315 316 317 317 317 317 318 317 318 319 318 319 319 318 320 321 318 320 323 322 321 320 320 322 323 323 320 320 321 321 324 327 324 323 325 324 323 322 320 319 319 320 319 319 320 320 319 320
311 310 309 309 309 309 309 309 309 309 309 308 308 309 309 310 311 310 312 313 313 313 312 312 311 311 313 313 313 313 314 315 317 317 314 314 316 315 316 316 316 316 316 317 317 317 318 316 319 323 321 321 321 319 322 323 318 317 323 325 323 321 322 323 323 323 322 321 321 322 323 324 320 320 323 323 323 323 321 321 320 320 321 321 320 321 320 321
314 312 310 309 309 309 309 310 309 308 309 309 309 309 309 309 310 310 311 313 313 313 313 312 312 311 312 313 313 312 313 315 317 317 315 314 316 316 315 316 316 316 316 319 320 319 319 319 321 323 323 324 322 320 322 322 319 320 324 326 323 321 322 323 322 323 323 323 323 323 323 323 321 319 319 319 319 320 321 322 320 319 321 321 321 321 321 322
317 316 314 312 311 310 310 311 311 309 309 310 309 309 309 310 310 310 311 313 315 314 314 312 312 313 313 312 313 312 314 316 316 317 315 314 316 316 314 315 316 316 316 319 320 319 320 321 323 323 323 323 322 323 325 322 321 323 323 324 324 323 323 323 322 323 325 324 324 325 324 323 322 321 320 319 319 320 321 323 321 320 320 321 321 322 322 322
319 319 319 317 316 314 312 312 311 310 309 310 309 308 309 310 310 311 312 313 315 314 313 312 312 314 314 313 313 312 313 315 315 316 315 314 316 315 315 315 315 316 316 317 320 321 320 318 319 322 323 322 321 324 327 325 323 321 321 324 325 324 323 323 322 323 325 323 323 327 326 318 316 319 321 320 320 322 322 323 323 320 320 322 321 322 322 322
319 320 320 320 319 318 316 314 313 312 310 309 309 308 309 311 311 312 311 312 316 314 311 311 312 315 315 313 314 313 313 314 315 316 315 315 316 315 315 315 315 318 319 319 321 320 316 313 315 319 320 318 318 318 320 324 322 319 322 325 324 322 323 324 323 322 325 324 323 328 326 316 314 320 321 321 324 326 322 321 322 320 320 322 322 322 322 320
319 319 320 320 320 319 319 317 316 316 313 309 309 308 309 312 312 311 311 312 315 315 312 311 313 314 314 314 314 312 313 315 315 315 315 315 316 315 316 316 317 321 321 321 321 319 317 317 316 316 315 315 317 317 317 318 319 320 323 324 323 324 323 323 322 323 325 324 322 326 326 318 315 319 321 322 325 325 322 321 321 320 320 322 324 323 321 320
317 317 318 319 319 319 319 319 318 318 315 311 309 309 310 313 312 312 312 310 312 315 314 313 314 314 314 314 314 312 313 315 315 315 316 316 316 315 316 316 317 320 320 319 321 321 321 321 318 316 315 315 319 321 319 317 319 323 323 323 324 323 323 325 325 327 326 322 321 325 325 320 317 318 321 322 322 321 321 320 319 320 320 321 322 322 321 321
314 315 317 317 318 318 318 319 319 319 317 312 309 312 314 312 311 312 312 310 313 317 316 315 315 314 314 314 315 314 314 316 315 315 316 317 317 316 316 317 316 317 317 318 320 321 321 321 320 318 316 315 318 321 320 318 320 322 323 324 325 321 321 324 325 327 327 323 322 323 325 324 319 319 322 321 319 320 320 319 319 319 319 319 319 320 321 320
313 313 315 317 317 318 318 319 319 320 319 313 310 314 315 311 311 312 312 312 316 318 317 316 316 315 314 315 316 315 315 316 316 316 318 317 317 317 316 316 316 316 316 316 319 320 319 321 321 319 317 317 318 319 319 319 319 319 321 323 324 321 319 320 321 324 327 325 321 320 324 326 320 319 323 321 318 319 319 320 320 319 319 320 319 320 320 320
313 313 314 316 317 317 317 318 318 319 319 314 312 314 312 311 311 311 311 315 318 318 317 316 316 315 315 317 318 314 315 318 317 316 319 317 316 317 316 316 316 316 316 315 318 319 317 319 321 318 316 316 318 319 319 319 318 318 320 321 323 322 317 319 321 321 323 324 323 322 324 325 320 319 321 319 318 319 319 319 319 319 320 319 319 319 319 320
311 312 313 315 316 316 316 317 318 318 317 312 311 312 311 310 313 312 312 316 318 317 317 317 317 316 315 318 319 316 315 319 318 317 319 318 316 317 317 317 316 315 315 314 317 320 318 320 322 318 316 315 316 319 319 319 319 319 321 321 324 323 319 320 322 320 319 320 320 320 320 319 317 318 319 318 318 319 319 320 319 319 320 319 318 317 317 319
309 311 312 314 315 315 314 316 317 317 315 311 309 311 311 312 315 315 315 317 317 317 317 317 317 317 316 317 319 318 317 319 319 318 319 319 318 318 317 317 316 315 316 313 315 321 321 321 321 319 319 316 314 317 319 317 318 323 323 321 322 323 322 320 321 321 321 319 319 319 317 316 315 317 320 319 318 319 320 321 319 318 319 319 318 317 317 318
308 311 311 312 313 315 315 316 317 315 313 310 310 311 312 312 315 318 317 317 317 317 316 316 317 317 317 317 317 317 317 317 318 318 318 318 318 318 317 317 317 315 315 314 315 319 320 319 319 318 318 317 314 316 319 317 316 320 322 319 321 324 323 322 319 319 320 318 318 319 317 316 317 318 319 318 320 322 321 322 321 318 318 318 318 318 317 318
308 310 311 311 311 313 315 316 316 313 311 311 311 312 313 312 314 317 317 316 318 318 315 315 317 317 317 316 316 317 316 316 317 317 317 317 317 318 317 317 319 317 315 315 315 319 318 317 320 317 315 317 316 317 320 319 317 318 318 319 322 323 323 323 321 319 319 318 317 318 317 316 318 320 319 318 320 322 321 322 322 319 317 318 318 318 318 318
307 310 311 311 310 311 314 315 314 312 310 310 310 311 312 312 313 315 316 316 318 318 317 316 317 317 317 317 317 317 315 316 317 316 316 316 316 318 317 316 319 318 316 316 316 319 318 315 318 317 315 317 318 317 317 318 318 318 319 321 322 321 321 323 323 320 320 319 318 319 317 316 319 321 321 320 321 321 321 323 322 318 317 319 318 318 319 319
307 309 311 312 311 311 313 314 313 312 310 308 309 309 309 311 313 314 314 314 315 316 317 318 319 318 318 318 317 317 316 316 317 316 315 315 316 317 318 317 318 319 319 318 317 318 317 315 318 319 317 318 318 318 317 318 318 317 317 318 319 320 320 321 322 320 321 322 321 320 318 317 320 321 320 321 323 323 321 321 321 319 318 319 319 319 320 320
308 308 310 312 311 311 312 313 312 311 308 308 309 308 309 311 313 314 314 313 312 313 314 316 318 319 319 318 317 318 317 316 317 317 316 315 315 317 318 316 316 317 318 318 318 316 315 315 318 320 319 319 318 318 318 319 321 320 318 317 317 318 319 319 321 323 324 322 321 321 319 317 319 323 323 322 322 321 319 319 319 319 319 319 319 319 320 320
307 308 309 311 311 311 312 314 313 310 308 309 310 309 310 312 313 314 315 314 313 314 315 316 317 319 320 320 319 319 318 316 317 317 317 317 316 317 318 316 316 317 316 317 318 316 315 317 318 318 319 320 318 317 316 317 319 321 321 321 319 318 318 319 322 325 325 323 321 322 320 317 320 325 322 319 319 318 318 319 318 318 318 318 319 319 320 320
306 307 308 310 311 311 312 313 314 311 309 310 310 310 311 312 313 314 315 314 314 315 315 316 316 317 318 318 319 320 318 317 318 317 318 319 318 317 317 316 317 318 317 318 318 316 316 319 319 317 319 320 320 319 319 318 318 319 321 322 321 320 320 320 321 322 323 324 323 322 319 318 322 325 321 320 321 319 318 318 318 318 318 318 320 320 320 319
305 305 307 309 311 312 312 312 312 313 312 310 310 310 310 311 311 313 315 314 313 314 315 316 315 316 317 317 317 320 320 320 321 320 320 321 320 316 315 317 319 318 317 317 317 315 318 319 317 317 317 318 319 321 321 320 319 319 321 321 321 322 322 321 321 320 320 321 321 320 319 317 319 322 322 322 323 321 318 318 318 318 318 318 319 319 319 319
304 305 305 307 309 311 312 311 311 312 312 311 311 311 310 311 311 311 313 314 314 313 314 315 314 314 316 316 317 319 319 319 321 321 321 322 321 316 313 314 316 316 315 315 315 317 321 320 316 316 317 315 317 322 323 321 319 319 320 320 320 321 322 321 321 321 319 319 319 319 318 317 317 318 319 320 322 323 320 317 317 318 318 318 318 318 319 319
304 304 305 307 308 308 309 310 311 311 312 312 312 311 311 311 311 311 312 313 314 313 313 314 314 314 315 314 315 317 317 317 318 319 319 320 319 317 313 312 314 314 314 313 314 318 322 320 317 317 317 315 318 323 323 320 318 318 318 318 319 320 321 322 322 320 319 319 319 317 318 319 317 315 317 319 320 321 319 316 316 317 318 318 318 318 318 318
303 303 304 306 308 308 307 308 309 310 311 312 312 312 312 311 312 313 312 312 313 313 313 314 314 313 314 314 314 315 315 316 316 316 317 317 318 317 316 315 313 312 313 313 313 317 321 319 318 319 318 317 319 321 321 320 319 318 317 317 318 319 320 321 320 320 319 320 319 317 318 319 317 316 317 319 319 318 317 316 317 317 317 318 318 318 318 318
302 303 303 304 306 308 308 307 308 309 310 311 311 312 312 312 312 313 313 312 313 313 313 314 313 313 313 313 314 314 314 315 316 315 315 316 316 317 317 317 314 310 312 315 314 314 317 318 318 318 318 319 319 319 320 320 320 319 319 319 318 318 319 319 319 319 319 319 318 319 319 318 317 317 317 317 317 316 316 316 317 317 317 317 318 318 318 319
302 302 303 304 305 306 307 307 307 309 309 309 310 311 311 312 312 313 313 312 313 313 313 313 313 313 313 313 313 314 313 314 316 315 315 315 315 315 316 317 316 311 311 315 316 314 315 317 318 317 317 318 318 317 318 319 319 320 321 321 320 319 319 318 318 318 318 319 318 318 319 318 316 316 316 316 316 316 316 316 316 317 317 317 317 318 318 318
301 302 302 304 304 305 305 306 307 308 308 308 309 310 311 312 312 313 313 312 312 313 313 313 313 313 313 313 313 314 313 313 314 315 315 315 315 315 315 316 317 316 314 314 317 316 315 316 317 317 317 317 317 317 317 317 318 318 319 319 319 319 319 318 319 319 318 318 319 319 319 318 316 316 316 316 316 316 316 316 316 317 317 317 317 317 317 318
300 301 302 302 303 304 304 305 306 307 307 307 308 309 310 311 312 312 313 313 312 312 312 313 313 313 313 313 313 314 314 313 314 314 314 315 314 314 315 314 315 316 315 314 315 315 314 315 316 316 317 318 317 317 317 317 317 318 318 317 317 317 317 318 319 320 319 318 319 319 318 317 316 317 317 317 316 316 315 316 316 317 316 317 317 317 317 318
Wind_Speed
20 20 20 20 20 20 20 19 18 18 17 16 15 15 14 13 13 12 12 12 11 11 11 11 11 11 9 8 6 5 4 5 5 5 4 5 7 6 5 5 5 5 4 3 4 4 3 3 2 3 2 2 2 1 3 4 4 2 0 2 4 3 1 1 2 4 5 6 6 11 13 8 6 8 6 4 4 4 4 5 6 6 8 8 5 4 4 5
21 21 21 20 20 20 20 19 18 17 17 16 16 15 14 13 13 13 12 12 12 11 11 11 11 10 9 8 6 5 4 5 5 5 7 7 7 6 4 4 5 5 4 5 5 4 1 1 3 4 3 4 3 2 2 3 5 2 1 2 3 1 3 6 8 8 5 6 9 10 10 6 7 10 8 4 6 9 6 6 9 8 9 11 11 9 7 7
21 21 21 21 20 20 20 19 18 17 17 16 16 15 14 14 13 13 13 12 12 12 12 11 11 10 9 8 6 4 3 4 6 8 10 8 7 6 5 5 5 6 5 5 6 5 3 2 4 5 4 5 4 4 4 3 4 2 2 1 1 1 5 10 13 10 7 5 9 10 7 4 7 9 9 5 6 10 9 9 12 12 12 13 13 13 12 11
21 21 21 21 21 20 20 19 18 18 17 17 16 15 14 14 13 13 13 12 12 12 12 12 11 10 9 8 6 4 3 4 6 10 10 8 7 6 6 5 5 6 5 5 5 7 7 4 4 5 5 4 6 5 6 5 4 2 1 1 3 4 4 8 11 9 7 6 8 9 5 3 5 6 7 6 4 6 10 13 14 15 16 15 14 13 13 14
21 22 22 21 21 20 20 19 19 18 17 17 16 15 14 13 13 13 13 13 13 12 12 12 11 10 10 9 6 5 4 2 4 10 11 9 8 7 7 6 6 6 5 5 5 5 6 5 3 4 5 3 7 5 5 7 5 1 1 4 5 6 4 5 6 8 7 7 8 8 3 3 6 5 6 6 4 3 3 6 11 11 13 15 14 12 12 13
22 22 21 21 21 20 20 19 19 18 17 16 15 14 13 13 13 13 13 13 13 13 12 12 11 10 10 9 7 7 7 1 3 8 10 9 7 7 7 6 6 5 5 6 6 4 5 5 5 6 6 3 8 5 4 8 5 1 2 6 7 6 5 4 3 6 7 6 5 4 1 3 4 3 7 10 11 6 3 3 5 4 5 9 10 10 10 11
22 21 21 21 21 21 20 20 19 18 17 16 15 14 13 13 13 13 13 13 13 13 13 12 11 11 11 9 7 8 9 6 6 5 8 8 7 7 7 6 6 6 6 6 5 3 4 5 7 8 7 3 7 6 5 6 6 2 1 5 6 8 8 4 4 5 5 5 3 2 1 0 2 3 4 9 15 14 8 8 6 5 4 5 7 8 9 10
22 22 22 23 22 22 21 21 19 18 17 16 15 14 14 13 13 13 14 14 14 13 13 13 12 12 11 9 8 7 10 9 5 3 7 7 8 7 7 7 6 6 7 6 5 3 4 6 8 8 4 1 4 6 5 6 4 3 2 6 4 8 8 5 6 5 4 3 1 1 2 4 5 4 5 10 16 16 14 14 14 12 9 8 10 12 12 13
22 22 23 23 23 23 22 21 20 19 18 17 16 15 15 14 13 14 14 15 14 14 13 13 12 13 11 10 7 5 8 10 4 3 7 8 9 9 8 8 7 7 4 5 6 4 5 5 5 5 1 3 5 5 4 3 1 1 5 8 6 8 7 6 7 5 5 2 1 1 4 5 6 6 8 14 18 19 15 14 16 16 14 13 14 15 16 16
23 23 23 23 23 23 22 22 21 20 18 18 17 16 15 14 14 14 15 15 14 14 14 13 13 13 11 9 7 3 5 9 7 6 9 10 10 9 9 7 7 7 3 2 4 3 4 2 0 2 1 2 5 4 1 1 1 2 6 7 8 9 6 6 6 6 5 2 2 1 4 4 3 3 5 9 9 13 15 14 16 16 16 16 16 17 18 19
23 23 24 23 23 23 23 22 21 20 19 18 17 16 15 14 14 14 15 15 14 14 13 13 13 13 11 9 7 4 5 9 9 9 10 11 10 8 8 6 5 7 4 1 3 4 4 2 2 2 1 3 6 4 3 4 2 3 5 5 7 7 6 6 5 7 6 2 4 2 4 5 1 1 11 14 6 7 13 15 15 16 16 15 15 16 18 20
22 23 23 23 23 23 23 22 21 19 18 17 17 16 15 14 14 14 15 15 14 14 13 14 14 13 11 10 9 6 6 10 10 10 12 10 9 7 6 5 3 5 5 1 2 4 4 4 4 2 0 4 5 3 4 5 3 2 3 1 5 6 4 8 8 8 7 3 5 2 3 7 5 9 21 19 13 10 10 12 13 14 15 13 14 15 17 19
23 22 22 23 23 23 22 22 20 19 17 17 16 15 14 14 13 14 15 15 14 14 14 14 14 13 11 7 8 7 6 10 11 12 13 11 8 6 4 3 2 2 3 2 2 3 4 6 5 2 1 1 3 4 4 4 3 2 3 1 3 3 3 9 9 7 6 5 7 3 1 6 6 16 23 14 14 15 11 12 12 13 14 14 15 17 19 20
23 22 21 23 23 22 22 21 20 18 17 16 15 15 15 14 14 14 15 14 14 14 15 14 13 13 10 4 5 8 8 10 13 13 14 12 8 6 3 2 2 2 2 2 2 3 4 6 5 2 2 3 6 6 4 3 2 1 2 0 1 2 1 6 7 8 5 4 8 4 1 7 7 8 14 10 12 13 12 13 13 14 15 16 17 18 20 21
23 22 21 23 23 23 22 21 20 18 17 17 16 15 14 14 14 14 14 14 14 15 15 15 14 12 8 4 4 8 9 10 14 15 14 13 8 5 4 3 3 3 3 3 3 3 5 5 3 3 4 5 6 4 2 3 2 1 2 1 3 2 1 2 4 7 4 3 9 6 1 7 6 3 8 9 9 10 11 11 12 13 14 15 17 18 20 21
22 22 22 22 23 23 22 21 20 19 18 17 17 16 15 14 14 14 14 14 14 15 14 12 13 11 5 4 6 9 11 11 13 15 15 13 10 7 5 5 4 4 4 4 4 4 6 5 3 5 5 3 3 3 2 2 2 2 2 2 2 3 3 2 2 3 2 3 6 6 3 4 3 4 7 7 7 9 10 11 12 13 13 14 16 19 21 20
20 21 22 21 22 23 23 22 20 19 18 17 17 16 15 14 14 14 14 14 14 13 13 10 10 10 5 3 6 9 13 13 12 15 15 14 11 9 6 5 4 3 3 3 3 4 4 4 4 4 2 2 3 3 1 2 3 3 4 3 2 2 3 2 1 2 3 1 3 6 5 5 6 7 8 7 9 11 13 15 16 16 17 17 18 20 22 23
20 21 21 21 22 22 22 21 20 19 17 17 16 15 14 14 14 14 14 14 13 12 12 9 9 6 5 7 7 7 14 15 13 14 15 15 13 10 8 5 4 4 3 2 3 4 3 3 2 1 2 2 4 3 4 3 2 2 4 3 3 2 4 3 1 4 5 2 3 5 6 8 9 11 16 17 16 16 17 19 20 20 21 20 21 23 25 26
20 21 22 22 22 22 22 20 19 18 17 17 15 15 14 13 13 13 15 15 14 9 4 10 14 4 1 11 14 10 13 15 13 13 15 16 14 12 10 6 5 5 4 3 3 3 3 2 1 1 3 4 4 4 4 2 3 2 1 2 2 2 2 1 3 3 4 2 4 6 7 9 8 9 13 18 19 19 20 20 21 20 20 21 23 26 27 28
19 20 22 22 22 22 21 20 19 18 19 18 17 16 13 12 9 7 12 16 16 7 1 12 19 5 2 11 18 14 12 13 13 15 16 16 15 12 9 7 6 4 4 3 3 3 3 2 2 3 5 5 7 8 4 2 5 4 3 2 3 3 2 1 3 1 1 1 5 6 7 10 10 8 10 18 20 18 19 20 21 21 21 23 25 28 29 30
19 20 22 22 22 22 21 20 20 20 21 20 22 18 10 12 8 4 10 13 16 11 2 12 17 7 2 8 16 15 11 11 12 15 17 16 16 11 9 8 5 3 5 3 5 2 3 2 4 6 5 1 3 5 3 3 3 3 3 2 3 3 5 1 4 2 2 2 4 5 7 11 11 9 11 16 15 16 21 20 22 24 24 26 27 29 30 31
19 19 21 22 22 21 20 21 20 21 22 22 25 18 9 15 11 7 12 8 14 18 9 10 12 8 5 5 13 14 10 9 8 13 17 18 17 11 10 10 4 3 5 5 6 2 2 3 6 5 3 5 5 4 5 3 2 2 1 1 3 3 2 2 4 3 2 2 4 6 6 10 12 11 13 17 15 18 25 24 23 25 24 27 28 28 28 27
19 20 21 21 22 22 21 22 21 22 23 23 25 17 10 16 11 10 14 4 8 20 17 12 8 8 10 8 13 15 10 8 8 13 18 19 17 12 11 10 5 4 6 5 4 4 2 4 5 3 6 5 4 4 4 2 1 2 2 1 3 2 1 1 1 3 4 3 3 6 6 8 11 12 14 19 22 23 26 26 26 28 28 31 30 28 26 23
20 22 22 22 22 22 22 22 22 23 23 23 25 16 11 15 10 9 14 2 0 12 18 17 10 9 13 10 12 15 10 7 8 13 21 21 16 12 9 9 7 4 5 6 7 6 3 1 3 6 4 3 4 3 3 3 2 4 5 4 4 2 1 2 1 1 3 2 1 4 6 6 8 10 9 13 16 18 22 23 25 29 31 31 31 29 27 25
19 20 22 23 23 22 22 21 22 23 23 24 24 17 11 13 11 8 9 3 1 6 11 17 14 11 14 12 12 13 8 5 6 11 21 23 15 9 7 8 8 4 6 8 6 6 3 1 3 6 2 2 5 4 5 5 3 4 5 6 5 3 3 2 5 5 4 3 1 1 4 5 3 6 8 7 6 8 12 15 20 26 27 26 28 27 26 25
16 18 20 21 22 23 20 17 20 23 23 23 24 19 12 12 12 9 6 1 2 4 6 11 13 11 15 13 13 12 3 5 8 10 20 23 16 9 6 5 4 2 6 6 3 3 1 1 1 6 5 4 4 3 5 6 3 3 4 2 1 2 4 4 5 3 2 4 4 3 1 5 4 4 9 8 7 7 8 10 16 22 22 22 23 22 21 18
13 15 17 19 19 19 16 14 19 22 19 19 23 21 13 11 12 10 6 1 3 6 7 8 10 11 14 14 18 11 1 8 12 10 20 22 15 10 5 4 4 2 3 2 1 0 3 3 2 5 5 4 4 3 4 7 4 2 4 4 4 4 2 1 3 1 2 5 5 5 5 5 6 6 11 12 11 10 8 8 12 17 18 18 18 17 15 12
10 10 12 13 13 15 15 15 17 19 18 16 20 21 13 11 12 9 5 1 3 7 6 7 9 11 13 16 22 12 5 12 10 7 21 22 14 10 5 4 5 5 3 3 3 1 2 5 5 6 4 3 4 1 3 8 4 1 3 3 5 5 3 2 2 2 2 5 5 4 6 3 7 5 8 10 10 8 10 10 9 13 16 14 11 10 9 8
13 10 9 9 9 12 15 15 13 16 19 14 15 19 13 11 10 5 1 2 4 5 4 9 10 10 14 16 19 13 9 8 2 8 20 19 14 8 3 5 4 6 8 6 4 1 2 2 2 4 5 3 3 4 2 4 3 3 3 5 6 4 4 3 1 2 3 4 4 5 6 2 8 5 6 7 7 7 9 9 7 12 12 7 6 6 7 9
16 14 10 9 11 13 13 13 11 12 17 14 14 18 16 11 7 3 3 3 2 3 5 9 9 12 17 12 9 10 8 3 4 13 13 10 11 6 2 4 3 1 5 2 1 2 2 2 2 1 2 3 5 5 6 5 6 7 4 5 5 3 4 3 1 3 3 4 4 8 10 3 5 4 5 6 6 7 7 4 6 10 8 6 5 5 7 8
16 14 13 13 14 13 11 12 10 9 13 15 15 20 16 7 2 3 5 1 1 3 5 4 6 13 17 12 7 9 6 4 9 14 8 5 7 3 2 3 1 3 2 2 1 2 2 2 1 1 3 6 6 5 7 5 4 5 3 4 4 2 3 4 2 3 1 6 3 6 10 7 5 5 1 3 5 8 7 5 6 5 3 6 4 4 6 7
13 13 14 15 14 13 12 11 9 9 11 14 19 21 13 3 1 5 4 2 0 4 6 6 7 10 13 11 7 8 7 6 9 10 7 6 6 5 7 5 5 3 1 4 2 1 1 3 3 3 3 6 5 4 4 5 2 2 3 5 4 1 1 1 1 1 3 6 4 1 5 5 9 5 3 5 3 5 5 4 5 4 2 2 2 4 7 9
15 14 14 16 16 16 15 11 10 11 10 15 21 16 6 2 5 7 6 4 1 2 5 9 9 10 11 9 6 7 6 5 8 8 6 7 6 7 8 7 9 6 3 5 4 1 1 2 4 4 0 7 6 4 3 1 2 5 5 6 5 3 2 3 4 2 4 5 2 2 3 4 7 3 6 10 10 11 10 7 7 7 9 11 10 10 12 14
18 17 17 17 18 17 15 14 13 12 10 16 18 9 3 5 7 9 11 6 1 2 3 8 10 10 11 8 6 9 5 3 9 7 5 6 5 6 7 8 10 7 1 3 4 6 4 4 6 7 4 10 9 6 7 5 5 7 5 4 4 4 4 4 4 3 4 3 2 0 1 3 3 2 4 3 5 9 13 13 13 12 15 15 13 14 16 18
16 18 19 18 19 19 17 18 18 16 16 18 13 5 7 8 6 9 10 4 2 2 4 7 10 9 8 4 3 8 3 2 9 8 5 8 6 7 8 8 11 9 4 4 3 5 7 5 5 6 8 16 12 8 8 7 3 4 2 2 4 4 3 2 2 3 2 2 3 2 4 5 3 6 7 4 8 6 11 15 16 16 18 15 15 18 19 19
12 15 19 20 22 22 20 21 22 22 21 17 8 4 10 9 5 5 5 4 4 5 8 8 5 6 7 3 2 5 0 2 8 7 4 7 7 8 8 7 12 13 9 7 3 3 5 3 1 3 5 10 8 6 7 5 3 3 2 4 4 1 3 2 2 2 4 2 4 3 6 6 3 8 9 10 13 9 6 10 14 18 19 17 20 24 23 21
9 11 16 21 24 24 23 23 24 26 23 16 7 8 8 6 3 1 0 3 9 12 9 6 4 5 7 4 3 6 2 2 7 6 4 5 5 8 10 8 12 15 14 11 4 2 6 1 3 1 2 2 1 1 1 1 3 4 4 5 1 4 2 3 0 2 1 5 5 4 8 8 4 7 4 4 9 9 6 8 11 16 18 19 23 24 24 22
8 8 13 19 22 24 24 25 26 26 22 12 8 10 7 5 3 2 4 1 9 13 7 5 5 5 7 6 5 8 6 4 6 5 5 5 4 9 12 9 11 18 21 17 6 2 5 3 3 2 1 2 2 2 1 2 3 4 2 1 3 1 2 2 2 2 4 5 5 4 8 7 6 7 5 4 7 8 8 9 9 12 16 19 23 23 22 21
8 6 9 13 18 21 22 23 27 25 14 4 7 9 5 6 5 3 7 5 2 7 7 7 6 4 7 8 6 7 8 7 8 6 5 5 4 9 14 10 9 16 22 19 8 1 3 4 3 3 3 1 2 1 5 2 2 3 3 2 2 2 3 4 3 2 3 4 5 5 7 6 6 6 7 9 10 10 10 9 8 11 17 21 21 20 20 19
7 4 5 7 11 16 19 23 26 20 7 1 5 3 2 4 6 6 6 6 3 1 3 6 7 6 7 8 7 8 7 7 9 7 5 7 5 5 11 11 7 9 17 17 9 2 2 4 4 2 4 0 2 5 9 9 6 3 2 2 3 2 2 1 1 2 4 3 3 4 8 8 4 4 7 10 10 10 10 8 7 12 19 19 17 16 17 18
6 4 4 6 7 12 20 22 16 10 3 1 3 1 2 3 5 9 8 5 5 4 3 2 4 5 7 8 8 8 7 7 8 7 5 7 7 4 9 15 11 8 10 9 8 6 3 4 5 2 1 4 5 5 6 8 9 9 8 8 9 6 4 2 3 3 2 2 3 2 8 11 5 3 4 6 5 7 11 10 9 13 17 14 12 13 15 18
7 4 2 6 9 14 20 14 4 4 3 3 4 5 6 4 3 8 9 5 3 3 3 3 3 3 4 7 9 8 8 7 8 9 6 9 11 6 9 19 20 16 12 7 10 13 7 3 4 4 4 5 3 2 3 2 2 3 4 6 7 6 5 5 5 4 2 3 4 1 6 12 4 5 4 5 7 6 8 9 8 8 6 5 8 11 15 17
9 6 1 4 12 18 18 7 2 4 1 2 5 6 9 7 4 5 7 6 3 1 1 1 1 1 1 1 6 9 9 7 9 11 9 9 10 5 7 17 19 16 11 6 7 10 6 2 3 3 1 1 1 1 2 4 4 0 3 2 3 6 8 6 4 4 3 5 5 2 7 11 1 4 2 4 7 7 6 5 4 1 5 8 10 13 14 13
9 9 6 5 12 20 15 5 4 6 3 3 4 6 9 7 6 7 6 7 7 3 2 3 1 2 2 3 2 6 8 7 9 11 9 7 6 2 3 11 15 13 8 4 6 9 7 4 5 4 1 1 0 1 1 2 2 2 3 3 5 8 8 3 0 1 2 7 9 6 9 11 2 3 1 3 5 3 3 3 3 6 9 11 12 13 13 13
6 8 9 10 15 22 17 7 4 5 6 7 5 7 9 6 8 14 9 6 9 6 3 4 1 2 1 3 5 2 3 2 4 8 7 5 2 2 2 3 9 10 7 3 8 13 8 4 6 7 6 8 6 4 4 3 2 2 5 8 9 9 9 6 2 3 5 10 10 6 9 13 7 2 4 3 3 3 6 8 9 12 13 12 13 17 18 18
4 4 6 9 16 22 20 15 11 6 5 8 6 6 10 6 7 15 14 7 9 9 4 2 2 1 1 2 4 3 3 3 2 3 4 3 1 3 3 2 2 6 7 6 9 10 3 2 8 10 10 11 8 5 7 8 7 6 10 12 12 12 12 8 5 7 10 9 8 11 12 17 18 8 1 3 2 4 6 8 9 12 13 14 17 21 22 19
5 3 5 6 7 12 14 15 13 7 6 9 5 4 11 10 4 9 14 11 10 12 6 2 4 4 4 5 3 2 2 2 3 1 1 2 2 1 2 3 4 4 5 5 6 6 3 3 9 11 13 13 7 2 7 11 12 13 15 15 14 13 13 11 10 12 12 8 11 15 13 15 23 17 9 8 8 6 7 9 11 14 15 16 17 20 22 22
7 5 8 7 3 4 7 10 12 9 9 10 6 4 10 13 8 7 11 11 11 13 8 4 8 10 9 10 8 3 3 3 2 1 0 1 2 1 3 4 3 2 2 2 2 3 4 4 7 8 11 12 8 2 4 7 8 11 14 15 16 16 16 16 17 19 16 11 12 15 13 16 22 17 8 7 8 11 12 13 15 18 19 20 21 23 25 26
11 8 10 8 4 1 0 4 10 10 10 9 6 6 8 12 13 10 8 6 6 11 11 7 10 15 14 11 9 6 5 5 6 6 3 1 1 2 0 2 2 2 2 3 1 1 3 4 5 4 5 9 10 6 4 5 4 4 7 9 11 15 18 19 21 22 19 14 14 15 16 17 18 16 11 10 15 20 22 23 23 26 29 28 25 23 23 24
13 9 8 6 6 5 2 3 6 6 7 7 6 7 9 11 13 11 9 10 7 8 13 14 13 14 15 13 12 10 11 11 10 9 6 5 3 2 2 3 1 2 3 3 1 1 2 3 2 2 2 8 11 8 5 5 5 4 6 6 6 10 16 19 19 16 13 14 16 17 18 18 17 14 15 21 25 22 23 27 27 28 30 26 21 22 23 23
19 13 9 5 4 7 6 3 4 2 3 5 5 6 8 11 14 11 9 15 16 10 12 18 16 11 12 14 14 13 15 15 14 16 13 10 9 8 6 4 5 3 1 2 1 2 2 2 1 3 2 9 11 9 7 5 4 5 7 9 12 14 12 11 11 10 12 15 15 13 13 15 15 12 14 23 25 18 18 26 28 28 29 25 23 27 30 28
23 18 13 6 3 5 6 4 4 4 4 5 6 7 8 8 10 10 7 12 19 20 20 20 16 9 9 14 18 22 25 23 23 25 20 14 15 16 13 11 11 8 4 3 2 3 4 3 1 3 4 9 12 9 5 3 4 6 10 15 19 18 13 9 8 12 15 13 10 10 11 12 13 13 12 17 18 15 17 24 29 31 30 26 23 26 30 30
Wind_Direction
189 191 199 200 198 197 196 194 195 196 195 197 199 203 206 208 211 213 216 217 218 215 213 211 206 204 202 203 206 216 218 211 210 199 213 218 215 225 231 218 207 200 180 159 136 111 98 99 137 162 125 151 162 161 196 211 196 189 274 210 248 234 170 213 96 84 141 139 143 163 167 157 147 170 186 188 187 179 160 166 192 208 215 228 218 193 189 177
191 191 196 200 200 199 198 195 195 196 196 198 200 203 206 208 211 213 216 215 216 214 211 209 206 204 203 204 210 221 226 220 211 212 234 235 228 229 230 222 208 201 188 167 138 109 104 178 194 187 177 184 165 160 179 191 190 206 247 219 257 72 22 14 57 55 57 121 148 159 181 182 144 162 174 183 197 189 189 191 199 210 220 230 230 227 221 203
192 192 195 199 201 200 200 198 196 197 198 199 200 202 204 208 211 213 215 214 214 213 211 207 204 203 203 203 209 225 228 227 227 224 231 233 231 231 231 224 207 204 198 187 163 164 214 196 186 206 208 193 168 165 164 184 199 220 267 210 306 51 49 36 60 65 42 91 137 143 179 183 131 150 166 196 205 185 197 200 191 197 213 228 228 228 227 219
193 193 196 199 200 201 201 200 198 198 199 200 202 203 205 208 211 213 214 214 213 211 209 206 203 201 200 200 204 217 222 239 239 227 229 233 231 231 228 220 210 209 200 195 178 179 184 163 187 210 230 206 155 171 178 180 184 174 235 140 351 352 52 47 58 75 61 73 109 121 154 185 146 150 166 194 224 200 209 210 203 204 210 221 224 222 224 226
196 195 196 198 200 201 202 201 201 201 201 201 203 204 206 208 211 213 214 213 212 209 207 204 202 200 197 198 201 201 200 219 228 220 226 231 232 228 220 213 209 206 193 182 165 173 169 167 214 217 246 215 145 178 181 170 184 172 145 93 37 7 52 57 64 87 73 70 101 119 140 169 159 171 190 200 232 214 168 192 202 209 209 212 217 214 213 223
201 199 197 198 200 202 202 203 202 202 203 202 204 206 208 210 212 214 213 212 210 206 204 201 200 199 195 197 202 201 199 262 296 228 219 223 226 217 209 206 201 188 185 177 154 164 169 177 210 206 236 221 163 177 134 159 193 242 111 84 54 45 81 72 87 103 79 70 92 112 112 124 152 221 220 214 230 227 78 107 179 192 206 201 208 213 215 224
206 202 198 198 200 202 202 203 204 203 204 204 205 207 210 211 212 214 212 210 208 204 201 198 199 196 194 197 204 213 220 265 306 249 215 215 211 202 196 190 185 171 167 158 142 171 185 195 210 214 235 224 173 165 121 160 183 231 145 94 65 73 90 83 106 128 97 73 59 55 37 35 237 273 236 219 231 236 256 276 262 246 234 209 218 229 235 241
209 206 201 197 198 201 202 203 203 204 205 205 207 208 210 212 213 213 211 208 205 202 198 196 198 193 193 198 203 225 232 240 278 240 206 201 188 180 175 167 166 167 163 153 160 193 204 214 219 224 244 106 150 148 147 170 178 248 125 113 101 86 97 96 102 125 111 88 80 147 290 282 262 295 290 245 238 238 244 257 263 257 243 235 243 249 248 247
213 210 205 200 198 199 201 202 202 203 205 207 208 209 210 211 213 212 209 206 203 200 197 195 195 190 191 197 203 235 233 216 211 192 184 174 165 161 160 158 158 154 146 159 168 182 197 223 230 226 271 78 128 134 155 182 175 277 105 121 128 106 111 109 107 116 111 120 129 166 257 255 261 293 285 260 252 247 241 241 250 254 249 243 246 252 254 253
216 213 208 204 200 198 200 202 202 202 204 208 209 209 210 211 212 211 208 205 203 200 196 194 191 189 191 193 202 236 219 197 180 169 169 161 155 153 152 149 153 138 98 195 176 178 204 257 266 198 299 84 120 109 101 136 107 95 105 117 122 119 130 128 130 137 130 145 148 230 272 249 257 301 271 262 261 245 229 224 235 245 251 251 249 249 254 256
217 214 209 205 203 200 200 202 204 204 206 208 209 210 211 212 213 209 207 204 203 200 195 193 189 190 190 187 204 234 210 194 178 168 169 163 157 155 148 137 146 136 104 222 201 192 212 239 146 145 270 130 115 89 82 105 107 117 120 115 127 133 139 144 149 158 163 159 166 228 303 282 246 194 251 247 241 230 214 213 225 240 251 253 251 248 249 253
218 216 211 207 205 203 201 202 204 206 208 209 210 212 212 214 215 209 206 203 202 200 194 191 188 191 190 191 219 247 218 195 180 171 172 169 166 160 149 137 140 136 117 108 214 197 203 197 166 72 124 149 125 116 103 108 102 125 158 160 158 158 162 177 175 173 183 159 151 147 317 271 214 222 255 249 231 230 213 213 220 235 250 254 251 248 249 253
219 217 214 208 205 204 204 203 204 207 209 211 211 211 212 214 214 209 204 202 201 199 193 189 188 191 189 197 227 237 214 194 182 176 178 178 174 162 154 148 135 136 143 153 185 179 188 186 161 90 114 88 91 126 114 113 111 156 197 285 165 179 202 186 171 162 172 138 141 126 323 267 231 232 251 250 226 226 217 222 226 236 251 256 254 250 250 252
219 217 213 208 205 203 204 203 204 207 208 211 210 210 213 214 213 208 204 201 199 197 192 187 187 190 195 209 226 213 200 190 186 182 182 185 181 170 159 143 133 134 151 158 153 160 172 174 167 136 93 62 101 125 115 130 164 174 150 54 213 229 216 172 156 149 163 153 154 136 215 265 285 243 234 219 208 216 218 230 238 244 249 249 250 251 252 252
217 215 210 207 204 202 203 203 204 206 208 209 208 209 211 211 211 206 203 200 196 195 191 188 187 187 201 227 220 202 188 186 192 188 188 188 177 168 164 143 132 128 120 117 125 151 151 148 155 130 100 95 122 142 156 161 205 197 133 246 213 211 222 154 168 162 156 164 166 156 196 258 276 139 172 194 198 205 221 237 242 246 247 244 246 251 256 258
213 212 210 207 203 202 201 202 204 205 208 207 207 209 209 208 206 202 201 195 192 191 187 187 192 191 199 216 206 197 182 184 194 190 191 189 170 165 168 149 135 129 120 113 114 137 146 138 113 114 120 123 160 211 202 164 217 191 182 242 188 182 191 158 245 216 139 133 175 196 248 276 253 155 163 191 218 221 227 240 243 245 246 244 244 250 258 261
207 207 208 205 202 201 200 202 204 204 206 205 206 207 204 203 199 198 195 189 188 186 182 177 188 202 229 223 198 194 191 191 191 189 190 188 176 168 161 150 147 130 110 112 118 122 131 138 120 121 147 210 228 213 181 207 239 202 186 240 243 187 188 166 302 251 171 162 216 212 229 253 261 261 248 241 247 238 231 242 250 252 252 251 247 246 252 256
200 200 201 200 199 199 198 200 202 203 203 201 201 200 197 195 192 190 185 183 179 173 179 172 164 194 238 216 194 190 200 199 191 189 188 185 181 168 154 146 146 137 129 137 144 148 148 153 156 185 183 216 241 189 169 210 234 208 178 207 266 230 216 226 192 190 178 169 245 224 234 245 250 264 264 260 255 242 238 247 253 253 253 253 250 247 249 251
192 194 192 191 194 194 195 197 197 197 195 192 192 188 184 181 181 183 179 177 169 159 189 185 173 169 262 193 191 190 200 200 189 183 181 182 182 172 160 149 159 167 174 177 176 177 166 142 152 270 195 194 226 201 202 248 29 13 111 115 304 301 232 193 108 181 190 174 233 235 251 256 251 255 262 264 260 251 251 255 255 252 249 249 250 250 250 250
185 185 183 184 188 190 193 193 193 191 187 184 177 170 167 162 159 173 180 180 176 175 308 182 185 197 67 174 186 184 182 180 176 178 181 183 179 172 163 155 167 203 226 180 158 172 169 176 191 213 219 207 208 208 209 36 39 11 10 28 327 329 305 95 102 202 268 291 248 245 262 270 265 255 259 264 266 264 261 261 259 256 252 249 249 250 251 252
178 178 177 180 184 186 189 188 188 186 184 181 169 159 157 167 163 159 179 189 194 206 227 172 186 202 141 172 183 173 157 158 170 185 186 180 172 165 170 171 162 211 230 136 98 121 159 203 227 214 219 209 191 192 147 69 38 22 9 342 318 288 268 273 112 170 61 51 270 276 277 275 271 261 257 256 257 256 254 254 256 256 255 254 252 252 255 257
174 174 174 178 180 182 184 182 182 181 181 180 170 158 159 176 177 170 173 191 210 217 229 184 187 198 177 174 181 169 148 145 167 193 187 173 172 171 171 180 185 191 184 114 91 111 170 223 238 214 132 72 60 71 77 50 15 66 101 310 292 269 285 11 93 146 116 107 265 283 277 272 275 273 261 251 245 247 251 251 253 256 256 255 254 254 257 259
171 172 173 177 179 179 180 178 178 179 179 179 172 163 160 172 174 178 177 167 207 214 226 210 188 197 195 183 177 170 160 158 168 191 185 172 177 185 171 177 210 184 158 153 159 174 184 223 223 142 98 93 81 69 82 82 34 183 182 196 250 219 107 304 200 176 187 195 260 296 288 272 270 271 267 258 250 249 252 253 254 256 256 256 257 257 257 257
174 174 175 177 180 181 180 178 178 178 180 179 177 172 160 167 164 168 181 199 240 203 218 215 197 198 202 194 183 180 179 177 169 185 186 175 177 190 183 186 206 195 175 188 196 204 201 192 142 108 101 132 126 133 152 164 212 216 204 200 229 240 181 219 329 359 236 225 334 315 296 273 248 245 263 270 255 245 247 248 250 252 253 256 259 259 258 256
178 180 181 181 184 185 183 183 180 179 181 182 184 180 164 171 168 155 177 224 313 183 206 212 207 207 204 200 190 182 184 182 170 190 189 178 174 181 191 203 205 203 199 192 203 226 214 137 132 113 110 166 146 174 183 176 207 227 217 210 223 281 337 348 7 6 339 326 316 356 316 296 259 227 248 271 254 231 237 236 240 248 252 254 257 261 262 261
174 183 188 188 189 187 183 183 183 185 185 186 189 185 172 174 176 174 175 233 270 173 162 196 203 205 203 197 172 157 168 192 171 188 188 180 176 172 177 198 190 211 208 186 199 238 160 120 136 124 138 151 155 216 195 172 193 246 257 271 241 348 18 11 3 6 338 295 249 147 169 281 295 257 248 251 249 243 238 233 238 245 249 249 254 262 264 263
165 175 187 195 196 189 181 182 190 190 187 191 194 187 176 166 167 170 160 359 261 173 145 175 189 194 197 187 169 157 85 164 155 173 185 181 180 177 178 168 140 225 247 115 134 248 114 137 109 119 132 134 161 226 190 170 169 236 285 351 56 62 53 35 20 338 262 306 274 171 159 263 280 244 228 228 240 253 249 247 248 246 247 249 254 261 260 256
164 168 178 185 192 192 189 191 194 190 188 196 196 188 178 162 158 154 151 279 195 151 147 170 172 179 177 173 177 170 116 147 149 176 182 181 182 180 206 204 163 189 206 133 173 294 83 158 165 153 155 156 168 246 186 170 159 247 282 18 80 74 54 73 44 308 311 343 303 184 149 256 279 241 202 207 219 232 239 243 246 249 253 252 248 245 237 235
174 181 174 160 174 192 198 200 194 190 193 193 187 186 175 157 152 131 153 225 156 134 147 162 162 165 157 165 182 170 129 147 158 170 176 180 180 173 202 231 220 194 195 190 188 347 35 164 185 159 168 182 132 26 3 149 134 199 183 67 70 67 51 54 14 355 16 332 269 182 160 248 283 255 166 183 203 205 225 233 230 244 251 237 211 210 221 233
184 190 188 179 188 192 199 203 192 192 195 185 177 178 166 155 147 125 186 208 157 117 124 150 158 158 155 159 187 178 148 125 119 143 161 177 176 172 158 200 266 197 177 200 104 96 82 55 358 138 140 135 116 56 23 69 127 157 143 76 64 57 49 38 330 61 48 283 234 174 180 199 290 273 153 173 201 189 199 212 224 239 227 183 187 220 240 247
185 191 198 207 211 203 202 200 186 184 188 181 173 167 158 149 140 187 189 181 6 123 119 149 156 155 166 165 169 183 162 111 138 144 145 165 171 188 180 165 10 44 57 329 24 119 123 79 35 134 121 117 110 66 30 46 119 133 121 112 87 36 33 30 344 62 112 259 261 178 178 179 237 260 183 188 184 177 187 186 206 238 183 151 174 233 254 265
197 198 204 214 222 220 214 202 182 176 177 173 169 162 152 136 237 223 198 86 124 176 151 174 169 161 178 174 156 173 161 137 164 163 151 162 171 186 196 185 153 131 242 223 202 53 178 190 156 120 151 164 134 85 41 7 11 138 147 134 111 71 25 14 244 155 212 246 285 161 153 206 241 248 256 267 246 203 211 201 219 279 306 231 230 260 272 273
225 221 219 217 224 226 221 214 194 184 176 168 166 158 142 180 199 210 203 164 166 189 149 158 164 162 172 174 160 162 160 153 172 173 155 163 181 194 209 210 182 185 215 180 169 145 230 238 157 124 199 204 185 143 140 273 207 183 165 145 144 160 182 231 215 214 240 247 295 45 78 260 270 283 241 252 256 233 222 227 247 264 268 265 261 265 274 271
231 235 232 222 226 227 222 222 211 200 190 169 160 149 165 204 196 200 207 200 100 33 117 143 147 154 169 181 164 156 160 168 167 167 156 161 184 203 213 222 207 206 188 159 176 177 205 271 185 170 176 181 192 200 172 151 172 197 184 158 172 171 182 207 189 209 245 276 296 295 106 220 243 282 226 253 296 242 221 230 246 255 258 262 264 263 264 265
225 230 228 222 224 224 221 221 217 213 198 173 158 160 190 198 207 206 205 187 122 80 101 130 137 150 175 192 161 164 165 161 169 170 171 177 196 200 193 207 208 202 180 194 208 170 203 248 183 163 163 165 180 208 174 128 147 215 196 189 225 210 180 174 193 190 156 338 295 221 234 224 209 266 259 290 311 261 216 227 238 245 252 259 267 265 262 263
217 219 220 220 221 226 228 222 222 223 201 167 148 196 199 202 209 198 185 147 153 142 120 131 142 154 176 183 206 197 172 81 167 175 191 196 212 208 197 199 197 197 193 191 196 149 183 253 27 101 145 164 179 202 177 148 168 192 169 198 222 162 132 165 263 45 98 261 266 202 251 277 305 282 254 240 258 248 209 225 231 234 242 250 257 260 264 267
211 212 221 220 218 226 230 224 227 223 195 161 159 208 206 218 217 149 279 147 146 145 138 151 172 176 176 173 199 194 158 95 167 176 187 192 219 212 209 213 194 197 203 197 210 174 155 202 312 72 135 207 325 65 153 113 115 130 175 199 130 39 54 139 191 2 153 248 263 199 245 273 279 276 268 216 240 242 221 222 227 232 236 242 250 256 264 268
206 215 234 230 223 222 219 220 223 208 182 158 187 209 210 226 224 33 356 332 144 149 164 179 172 184 183 177 190 182 167 161 174 185 182 176 224 208 200 210 196 199 206 201 210 229 158 192 292 346 356 289 13 67 188 335 66 117 180 213 106 109 249 147 155 232 212 238 268 255 262 264 226 241 279 260 232 223 219 217 219 228 228 234 245 252 259 265
203 215 249 243 229 222 215 216 211 190 165 148 195 203 220 223 229 355 357 331 197 170 189 187 172 190 194 181 172 169 174 177 172 182 187 180 219 202 192 200 199 199 201 196 201 224 158 194 247 315 323 352 51 195 197 196 48 49 354 340 102 148 191 171 172 194 179 216 255 276 285 266 216 210 225 232 225 206 209 217 212 216 221 228 240 250 260 269
200 207 263 245 226 223 213 207 199 180 149 182 193 202 286 238 254 293 329 353 350 214 203 198 187 187 197 191 168 163 184 192 176 185 198 185 204 212 190 189 193 195 191 191 196 153 117 200 212 323 335 54 175 216 199 179 167 176 217 216 189 140 126 146 256 191 164 192 235 275 280 262 225 199 206 213 217 198 190 198 208 215 218 223 236 254 268 275
197 218 258 218 210 211 198 194 191 173 143 164 174 208 251 241 264 263 275 340 12 12 8 270 219 192 188 193 180 163 175 193 185 193 208 190 204 233 186 180 182 173 168 181 197 183 167 195 176 140 262 211 210 221 204 186 184 190 194 196 198 182 148 168 250 225 157 186 203 219 275 267 230 167 182 174 174 182 181 180 192 209 212 220 243 264 277 274
199 227 262 202 203 194 187 189 168 125 151 191 172 173 191 208 249 245 253 283 333 349 352 333 281 235 193 192 194 173 164 188 194 192 207 206 208 218 186 182 180 169 162 177 200 196 186 159 158 177 195 199 212 198 154 141 171 206 217 209 195 178 167 180 211 212 163 226 234 196 272 270 236 138 131 116 114 135 158 154 151 177 208 265 279 284 283 268
209 220 272 213 206 190 183 195 184 138 151 198 176 175 183 192 212 221 228 230 216 205 270 307 344 317 339 197 206 188 168 183 200 194 202 213 210 217 196 186 177 165 166 181 197 191 180 153 170 189 186 100 51 65 78 64 67 303 262 218 162 191 198 187 193 191 165 204 216 194 249 264 292 97 111 94 91 92 108 112 99 67 318 301 282 283 274 254
225 232 254 249 210 192 186 199 193 185 190 161 164 194 196 201 218 211 206 202 196 183 222 237 356 24 356 360 293 204 183 188 206 203 200 203 202 191 182 185 176 168 170 181 177 171 172 182 169 162 204 248 303 336 330 24 95 192 234 205 202 208 193 163 189 205 204 212 201 192 242 254 270 73 76 116 114 123 156 186 259 275 275 266 265 277 264 243
232 236 240 236 211 199 203 224 218 200 186 169 173 193 191 208 223 213 211 191 184 192 223 227 244 44 18 352 356 294 221 199 203 207 203 194 190 29 27 186 176 168 163 156 169 170 173 191 174 173 203 214 216 219 201 177 155 203 214 205 210 203 182 173 179 195 231 228 210 207 243 255 253 87 52 64 137 200 221 222 234 243 252 260 275 283 264 246
222 226 214 216 216 213 219 231 236 239 197 180 187 190 189 202 214 208 211 202 182 189 190 166 167 85 32 330 344 333 314 3 50 206 209 165 111 10 357 355 105 126 123 126 154 159 147 221 196 195 211 214 218 218 179 153 151 197 213 206 206 204 195 187 170 199 223 232 233 229 236 259 263 243 236 304 241 227 241 233 232 244 259 271 281 282 268 256
229 232 191 188 215 228 234 234 231 239 215 192 181 175 192 204 205 191 200 205 193 191 194 182 187 195 202 216 256 309 268 319 27 23 264 113 111 18 357 10 43 90 115 128 145 138 116 223 212 211 225 228 228 193 164 162 171 198 208 205 204 203 198 197 207 218 216 215 242 239 225 250 262 252 232 247 258 256 249 246 256 266 274 275 278 279 272 269
224 237 224 211 198 216 235 229 220 226 229 214 203 195 198 201 201 186 190 204 202 190 192 211 203 206 209 205 209 228 236 262 305 259 91 77 116 86 11 5 30 62 98 107 109 119 138 215 226 218 235 246 249 228 177 183 190 199 206 207 204 200 197 203 217 224 219 212 236 245 230 236 258 266 245 223 251 266 266 272 282 289 292 289 285 282 276 273
224 244 243 241 250 286 27 181 196 215 229 226 224 225 213 205 204 197 180 186 205 195 192 204 207 206 208 201 197 210 212 214 238 236 197 163 165 118 62 302 10 33 59 94 72 75 137 215 236 216 253 265 257 248 234 239 251 234 228 225 207 200 203 208 218 224 227 231 242 253 256 251 258 271 272 262 270 278 286 291 292 291 290 287 285 283 277 270
216 227 240 254 264 270 303 126 158 195 220 224 232 229 226 222 215 206 184 178 187 190 194 210 215 202 201 201 196 209 210 200 219 231 199 182 207 166 184 214 132 30 39 85 33 12 140 219 244 91 296 273 264 262 257 257 273 275 279 288 258 224 216 216 223 228 232 243 247 250 261 265 262 268 280 282 279 281 287 287 283 282 282 284 287 287 280 271
217 216 227 252 254 236 238 205 162 170 200 204 224 230 231 231 222 216 206 197 198 191 188 207 216 198 192 201 200 212 215 203 212 225 213 200 210 207 205 192 151 131 110 148 131 76 141 225 34 84 231 257 257 257 255 257 274 272 268 264 253 245 234 220 219 220 222 234 242 247 255 261 265 270 276 279 278 275 275 278 280 281 280 282 284 284 282 277
221 224 229 239 253 231 228 216 192 209 219 193 195 218 232 242 236 233 231 210 207 207 202 203 207 200 196 202 203 212 215 210 216 226 224 221 222 218 216 205 178 162 163 167 141 124 145 152 130 148 203 251 254 251 248 242 253 253 243 236 236 239 245 245 235 227 225 224 229 240 244 251 267 274 268 269 273 271 269 275 280 281 281 282 282 282 283 282